SCP
0 0 1 1 1 2 1 1 2 1 1 0 0 1 1 1 0 0 0 0 0 0 0 0 0 0 0 0 0 0 0 0 0 0 0 0 0 0
0 0 0 0 0 1 2 1 2 1 1 0 0 1 2 1 1 1 1 1 0 0 0 0 0 0 0 0 0 0 0 0 0 0 0 0 0 0
0 0 0 0 0 0 1 2 2 2 1 0 0 1 3 1 1 1 1 1 1 0 0 0 0 0 0 0 0 0 0 0 0 0 0 0 0 0
-0 0 0 0 0 1 1 1 1 1 1 1 0 1 1 2 1 2 1 1 1 0 0 0 0 0 0 0 0 0 0 0 0 0 0 0 0 0
-0 -0 -0 0 0 0 1 1 0 1 1 1 0 0 0 0 1 1 2 2 1 0 0 0 0 0 0 0 0 0 0 0 0 0 0 0 0 0
-0 -0 -0 0 0 0 0 1 1 1 1 1 1 0 0 1 1 1 2 1 1 1 1 1 0 0 0 0 0 0 0 0 0 0 0 0 0 0
-0 -0 -0 0 0 0 0 0 0 1 1 1 0 0 0 1 1 1 1 1 1 1 1 1 0 0 0 0 0 0 0 0 0 0 0 0 0 0
-0 -0 -0 0 0 0 0 0 0 0 1 1 0 0 1 1 1 1 1 1 1 1 1 1 1 0 0 0 0 0 0 0 0 0 0 0 0 0
-0 -0 -0 -0 0 0 0 0 0 0 0 1 1 1 1 1 1 1 1 2 2 1 2 1 0 0 0 0 0 0 0 0 0 0 0 0 0 0
0 0 -0 -0 0 0 0 0 0 0 0 0 1 0 1 1 1 1 2 2 3 2 2 1 0 0 0 0 0 0 0 0 0 0 0 0 0 0
0 0 0 -0 -0 0 0 0 0 0 0 0 0 0 0 0 1 1 1 2 1 2 2 1 1 0 1 0 0 0 0 0 0 0 0 0 0 0
0 0 0 -0 -0 0 0 0 0 0 0 0 0 0 0 0 0 1 1 2 1 1 1 1 1 1 1 0 1 0 0 0 0 0 0 0 0 0
0 0 0 -0 -0 -0 0 0 0 0 0 0 0 1 0 0 1 0 1 1 1 1 0 1 1 1 0 1 0 0 0 0 0 0 0 0 0 0
0 0 0 -0 0 -0 0 -0 -0 0 0 0 0 0 0 1 0 1 1 1 1 2 3 3 1 1 1 0 0 0 0 0 0 0 0 0 0 0
0 0 0 0 0 0 -0 0 -0 0 0 0 0 0 0 0 0 0 1 1 1 1 1 2 4 2 2 1 2 0 0 0 0 0 0 0 0 0
0 0 0 -0 0 0 0 0 -0 0 0 0 0 0 0 0 0 0 1 1 1 0 0 0 1 1 2 2 2 1 0 0 0 0 0 0 0 0
0 0 0 0 0 0 0 0 -0 -0 0 0 0 0 0 0 0 0 0 1 0 0 0 1 1 0 0 1 1 1 1 0 0 0 0 0 0 0
0 0 0 0 -0 0 0 0 0 0 0 -0 -0 0 0 0 0 0 0 0 0 0 0 0 0 0 0 0 0 0 0 0 0 0 0 0 0 0
0 0 0 0 0 -0 -0 0 0 0 -0 0 0 0 -0 0 0 0 0 0 0 0 0 0 0 0 0 0 0 0 0 0 0 0 0 0 0 0
0 0 0 0 0 0 0 0 0 0 -0 -0 -0 -0 0 -0 -0 -0 -0 0 0 0 0 0 0 0 0 0 0 0 0 0 0 0 0 0 0 0
0 0 0 0 0 0 0 0 0 0 0 -0 -0 -0 -0 0 -0 -0 -0 -0 -0 -0 -0 -0 0 0 0 0 0 0 0 0 0 0 0 0 0 0
0 0 0 0 0 0 0 0 0 0 -0 -0 0 0 0 0 0 0 0 -0 -0 -0 -0 -0 -0 -0 0 -0 0 0 0 0 0 0 0 0 0 0
0 0 0 0 0 0 0 0 0 0 0 0 0 0 0 0 0 0 0 0 0 0 0 0 -0 -0 -0 -0 -0 0 0 0 0 0 0 0 0 0
Wind_Speed_500mb
48 53 58 67 71 74 75 75 65 60 64 57 60 53 51 46 52 53 51 52 54 53 55 60 64 66 64 62 59 57 57 57 57 54 54 56 57 56
41 49 59 61 65 70 77 73 71 72 67 58 61 48 48 45 48 48 47 51 54 53 55 56 60 61 61 63 63 62 59 55 53 55 55 57 57 53
49 55 60 64 67 66 70 73 74 73 68 64 60 57 53 49 44 39 41 44 41 47 51 48 52 55 54 53 53 54 55 56 56 54 55 56 59 59
53 59 68 67 71 74 70 74 69 74 69 66 61 57 62 56 50 52 42 41 42 42 42 47 46 47 46 46 47 49 52 53 54 56 56 57 56 57
61 66 78 75 70 73 75 72 71 75 69 70 65 59 62 53 57 59 52 49 42 43 41 41 40 40 38 41 43 45 48 49 50 53 57 59 62 63
64 76 82 56 60 64 67 72 72 74 70 71 71 65 64 57 52 51 54 53 49 47 44 44 45 47 42 40 42 43 46 47 50 53 53 54 54 57
53 73 73 53 38 52 55 64 70 79 80 72 72 68 67 57 61 55 57 50 53 55 49 45 44 50 51 51 48 47 47 49 50 50 49 48 50 52
49 54 70 71 52 34 55 75 75 79 84 77 78 75 74 66 60 56 52 58 58 49 56 53 46 45 40 37 44 45 41 47 49 48 46 42 43 46
46 51 61 68 79 63 60 57 75 77 89 86 88 81 69 68 67 65 64 56 63 58 57 51 47 47 38 37 51 50 44 47 47 44 42 39 37 37
44 53 63 70 67 86 73 69 64 84 83 95 95 84 79 65 64 67 64 68 59 57 46 52 45 43 36 32 47 44 44 46 44 42 40 38 36 36
44 48 55 66 81 80 85 79 64 75 91 85 90 94 80 65 62 54 62 62 66 65 58 46 48 44 38 35 38 42 42 44 44 43 40 39 37 37
46 49 52 56 91 83 94 74 81 59 76 92 81 89 88 81 74 66 58 58 52 51 59 61 50 44 36 41 45 47 40 43 43 44 43 42 39 39
42 45 51 47 68 83 84 83 64 36 59 80 87 79 79 85 84 75 70 56 54 54 50 53 48 49 47 25 30 40 35 42 44 42 39 37 37 39
48 42 42 47 49 68 84 76 80 14 30 61 79 74 76 83 84 82 69 72 63 60 50 50 47 51 43 40 21 31 41 39 35 40 40 40 37 36
41 36 37 37 42 53 69 68 78 67 29 25 39 65 67 67 68 73 72 67 68 67 68 59 52 47 43 41 30 23 44 36 22 31 34 38 39 38
35 32 31 31 37 38 50 63 67 77 63 63 51 19 44 54 59 63 57 57 62 63 68 62 56 50 46 46 35 30 28 25 33 25 21 34 38 38
31 24 29 30 38 26 30 39 52 52 68 79 75 61 61 29 53 61 47 55 56 53 60 58 55 53 45 39 34 36 36 37 27 30 22 23 29 27
14 21 22 25 29 27 16 22 29 44 46 46 68 64 66 66 64 39 39 45 43 42 54 50 47 42 41 34 33 27 20 25 20 26 26 27 25 23
11 17 20 25 29 25 16 14 18 22 35 49 39 42 56 64 63 59 52 50 41 34 33 37 30 25 28 26 22 19 24 29 15 14 19 22 19 16
16 17 18 21 25 29 26 26 15 12 15 23 27 37 39 31 27 31 42 51 40 40 48 38 32 20 25 18 17 22 25 20 27 25 22 18 16 17
21 22 21 22 19 19 23 28 27 31 28 22 22 22 18 17 18 19 21 24 29 39 38 28 31 21 23 20 24 23 14 7 14 16 19 20 15 13
21 24 23 23 24 26 29 28 27 28 28 30 27 26 27 29 17 23 24 11 8 8 13 13 15 17 19 22 21 16 10 4 4 2 8 13 14 9
18 19 20 21 24 26 26 25 27 27 28 29 28 26 25 24 28 23 18 23 9 2 3 6 10 13 11 5 4 4 11 8 8 9 4 5 11 11
Wind_Direction_500mb
289 284 277 271 265 261 260 253 245 253 248 246 244 244 245 244 245 241 243 241 246 245 245 246 245 243 244 246 249 254 260 265 265 266 263 261 261 260
296 286 281 274 268 264 259 258 252 244 251 246 250 249 237 241 239 242 237 236 246 243 243 245 241 241 242 245 249 254 259 260 262 261 260 261 261 259
313 303 295 283 271 261 259 255 245 242 243 249 246 245 243 232 238 242 240 233 237 244 241 240 236 236 240 243 247 253 257 259 259 259 258 263 258 257
320 310 297 288 274 262 256 250 252 246 239 243 240 241 240 242 241 237 235 235 233 239 246 236 234 235 236 241 246 253 258 260 258 258 259 260 259 257
338 329 327 290 273 265 258 253 246 246 243 238 240 241 240 240 238 238 230 231 233 234 233 231 229 230 237 246 250 255 258 258 259 257 259 258 257 258
339 353 335 311 275 267 262 255 249 240 243 239 238 238 238 236 235 233 234 232 230 229 237 233 239 239 244 255 257 261 262 260 260 261 262 258 256 257
336 347 343 335 282 258 263 262 259 249 239 235 233 234 235 231 229 229 228 232 229 223 228 235 236 244 247 254 261 264 264 261 260 259 258 257 255 255
340 341 349 358 354 316 272 259 258 253 241 234 233 232 231 230 231 226 226 228 225 221 223 229 229 235 241 248 262 272 266 259 258 258 254 253 256 254
355 342 339 343 358 351 333 298 256 248 242 240 238 231 231 231 226 230 222 228 227 224 230 232 234 236 240 243 252 265 265 259 255 252 249 250 253 246
336 341 347 354 347 347 339 322 286 248 242 235 236 240 233 230 231 228 227 226 225 220 218 222 227 238 243 243 256 261 258 255 248 244 244 246 245 240
317 328 338 350 350 346 340 331 302 257 236 237 235 238 233 233 230 229 224 221 226 224 226 229 230 237 240 243 254 261 253 248 242 239 241 241 239 233
325 329 336 331 341 342 346 346 328 273 233 230 233 232 233 230 229 228 219 217 223 225 223 219 224 226 234 244 235 256 247 238 236 237 237 237 232 229
325 329 340 335 340 338 346 354 348 281 228 225 228 232 228 229 229 226 225 220 221 226 220 218 222 220 227 238 259 235 231 233 230 231 231 231 227 224
329 331 335 340 340 338 354 8 14 355 217 215 222 223 228 227 227 226 222 226 222 219 223 215 218 218 224 222 233 228 216 227 228 233 231 230 225 222
325 326 321 332 343 347 357 13 23 34 90 163 200 224 231 229 224 226 226 224 226 224 218 220 223 219 215 219 213 212 204 206 215 231 228 224 218 217
317 323 317 338 347 349 6 10 29 37 49 52 63 110 221 219 206 211 217 218 221 222 221 223 220 217 211 207 202 198 187 190 203 214 211 207 211 213
324 326 309 332 352 347 11 30 28 26 48 50 46 51 64 123 189 206 212 219 219 209 211 210 210 210 210 206 196 204 196 202 203 203 190 190 204 208
329 316 329 348 357 359 359 33 41 27 21 45 46 44 47 56 56 90 175 185 178 159 177 174 172 176 185 187 193 184 166 198 199 200 206 196 197 200
16 5 6 4 11 14 8 1 22 30 47 32 43 45 49 49 50 56 64 72 82 84 100 176 162 183 174 165 157 189 211 213 180 192 203 204 202 207
32 27 21 25 22 28 33 44 32 8 57 61 51 37 23 52 43 49 60 62 63 64 60 56 102 114 129 87 113 154 163 142 166 197 211 204 196 195
48 47 37 34 34 45 52 41 53 49 46 50 43 69 48 22 53 35 51 57 60 67 75 72 65 52 53 58 57 61 86 98 155 151 151 169 189 183
64 56 52 49 51 51 45 43 42 47 51 52 60 61 62 52 51 58 53 84 56 72 113 107 88 73 63 67 65 32 39 51 76 64 190 164 135 120
62 49 54 48 41 41 40 44 40 39 39 37 35 38 51 62 69 42 82 81 77 82 193 173 207 216 213 157 87 151 15 306 255 279 277 152 176 153
Wind_Speed_850mb
48 53 58 67 71 74 75 75 65 60 64 57 60 53 51 46 52 53 51 52 54 53 55 60 64 66 64 62 59 57 57 57 57 54 54 56 57 56
41 49 59 61 65 70 77 73 71 72 67 58 61 48 48 45 48 48 47 51 54 53 55 56 60 61 61 63 63 62 59 55 53 55 55 57 57 53
49 55 60 64 67 66 70 73 74 73 68 64 60 57 53 49 44 39 41 44 41 47 51 48 52 55 54 53 53 54 55 56 56 54 55 56 59 59
53 59 68 67 71 74 70 74 69 74 69 66 61 57 62 56 50 52 42 41 42 42 42 47 46 47 46 46 47 49 52 53 54 56 56 57 56 57
61 66 78 75 70 73 75 72 71 75 69 70 65 59 62 53 57 59 52 49 42 43 41 41 40 40 38 41 43 45 48 49 50 53 57 59 62 63
64 76 82 56 60 64 67 72 72 74 70 71 71 65 64 57 52 51 54 53 49 47 44 44 45 47 42 40 42 43 46 47 50 53 53 54 54 57
53 73 73 53 38 52 55 64 70 79 80 72 72 68 67 57 61 55 57 50 53 55 49 45 44 50 51 51 48 47 47 49 50 50 49 48 50 52
49 54 70 71 52 34 55 75 75 79 84 77 78 75 74 66 60 56 52 58 58 49 56 53 46 45 40 37 44 45 41 47 49 48 46 42 43 46
46 51 61 68 79 63 60 57 75 77 89 86 88 81 69 68 67 65 64 56 63 58 57 51 47 47 38 37 51 50 44 47 47 44 42 39 37 37
44 53 63 70 67 86 73 69 64 84 83 95 95 84 79 65 64 67 64 68 59 57 46 52 45 43 36 32 47 44 44 46 44 42 40 38 36 36
44 48 55 66 81 80 85 79 64 75 91 85 90 94 80 65 62 54 62 62 66 65 58 46 48 44 38 35 38 42 42 44 44 43 40 39 37 37
46 49 52 56 91 83 94 74 81 59 76 92 81 89 88 81 74 66 58 58 52 51 59 61 50 44 36 41 45 47 40 43 43 44 43 42 39 39
42 45 51 47 68 83 84 83 64 36 59 80 87 79 79 85 84 75 70 56 54 54 50 53 48 49 47 25 30 40 35 42 44 42 39 37 37 39
48 42 42 47 49 68 84 76 80 14 30 61 79 74 76 83 84 82 69 72 63 60 50 50 47 51 43 40 21 31 41 39 35 40 40 40 37 36
41 36 37 37 42 53 69 68 78 67 29 25 39 65 67 67 68 73 72 67 68 67 68 59 52 47 43 41 30 23 44 36 22 31 34 38 39 38
35 32 31 31 37 38 50 63 67 77 63 63 51 19 44 54 59 63 57 57 62 63 68 62 56 50 46 46 35 30 28 25 33 25 21 34 38 38
31 24 29 30 38 26 30 39 52 52 68 79 75 61 61 29 53 61 47 55 56 53 60 58 55 53 45 39 34 36 36 37 27 30 22 23 29 27
14 21 22 25 29 27 16 22 29 44 46 46 68 64 66 66 64 39 39 45 43 42 54 50 47 42 41 34 33 27 20 25 20 26 26 27 25 23
11 17 20 25 29 25 16 14 18 22 35 49 39 42 56 64 63 59 52 50 41 34 33 37 30 25 28 26 22 19 24 29 15 14 19 22 19 16
16 17 18 21 25 29 26 26 15 12 15 23 27 37 39 31 27 31 42 51 40 40 48 38 32 20 25 18 17 22 25 20 27 25 22 18 16 17
21 22 21 22 19 19 23 28 27 31 28 22 22 22 18 17 18 19 21 24 29 39 38 28 31 21 23 20 24 23 14 7 14 16 19 20 15 13
21 24 23 23 24 26 29 28 27 28 28 30 27 26 27 29 17 23 24 11 8 8 13 13 15 17 19 22 21 16 10 4 4 2 8 13 14 9
18 19 20 21 24 26 26 25 27 27 28 29 28 26 25 24 28 23 18 23 9 2 3 6 10 13 11 5 4 4 11 8 8 9 4 5 11 11
Wind_Direction_850mb
289 284 277 271 265 261 260 253 245 253 248 246 244 244 245 244 245 241 243 241 246 245 245 246 245 243 244 246 249 254 260 265 265 266 263 261 261 260
296 286 281 274 268 264 259 258 252 244 251 246 250 249 237 241 239 242 237 236 246 243 243 245 241 241 242 245 249 254 259 260 262 261 260 261 261 259
313 303 295 283 271 261 259 255 245 242 243 249 246 245 243 232 238 242 240 233 237 244 241 240 236 236 240 243 247 253 257 259 259 259 258 263 258 257
320 310 297 288 274 262 256 250 252 246 239 243 240 241 240 242 241 237 235 235 233 239 246 236 234 235 236 241 246 253 258 260 258 258 259 260 259 257
338 329 327 290 273 265 258 253 246 246 243 238 240 241 240 240 238 238 230 231 233 234 233 231 229 230 237 246 250 255 258 258 259 257 259 258 257 258
339 353 335 311 275 267 262 255 249 240 243 239 238 238 238 236 235 233 234 232 230 229 237 233 239 239 244 255 257 261 262 260 260 261 262 258 256 257
336 347 343 335 282 258 263 262 259 249 239 235 233 234 235 231 229 229 228 232 229 223 228 235 236 244 247 254 261 264 264 261 260 259 258 257 255 255
340 341 349 358 354 316 272 259 258 253 241 234 233 232 231 230 231 226 226 228 225 221 223 229 229 235 241 248 262 272 266 259 258 258 254 253 256 254
355 342 339 343 358 351 333 298 256 248 242 240 238 231 231 231 226 230 222 228 227 224 230 232 234 236 240 243 252 265 265 259 255 252 249 250 253 246
336 341 347 354 347 347 339 322 286 248 242 235 236 240 233 230 231 228 227 226 225 220 218 222 227 238 243 243 256 261 258 255 248 244 244 246 245 240
317 328 338 350 350 346 340 331 302 257 236 237 235 238 233 233 230 229 224 221 226 224 226 229 230 237 240 243 254 261 253 248 242 239 241 241 239 233
325 329 336 331 341 342 346 346 328 273 233 230 233 232 233 230 229 228 219 217 223 225 223 219 224 226 234 244 235 256 247 238 236 237 237 237 232 229
325 329 340 335 340 338 346 354 348 281 228 225 228 232 228 229 229 226 225 220 221 226 220 218 222 220 227 238 259 235 231 233 230 231 231 231 227 224
329 331 335 340 340 338 354 8 14 355 217 215 222 223 228 227 227 226 222 226 222 219 223 215 218 218 224 222 233 228 216 227 228 233 231 230 225 222
325 326 321 332 343 347 357 13 23 34 90 163 200 224 231 229 224 226 226 224 226 224 218 220 223 219 215 219 213 212 204 206 215 231 228 224 218 217
317 323 317 338 347 349 6 10 29 37 49 52 63 110 221 219 206 211 217 218 221 222 221 223 220 217 211 207 202 198 187 190 203 214 211 207 211 213
324 326 309 332 352 347 11 30 28 26 48 50 46 51 64 123 189 206 212 219 219 209 211 210 210 210 210 206 196 204 196 202 203 203 190 190 204 208
329 316 329 348 357 359 359 33 41 27 21 45 46 44 47 56 56 90 175 185 178 159 177 174 172 176 185 187 193 184 166 198 199 200 206 196 197 200
16 5 6 4 11 14 8 1 22 30 47 32 43 45 49 49 50 56 64 72 82 84 100 176 162 183 174 165 157 189 211 213 180 192 203 204 202 207
32 27 21 25 22 28 33 44 32 8 57 61 51 37 23 52 43 49 60 62 63 64 60 56 102 114 129 87 113 154 163 142 166 197 211 204 196 195
48 47 37 34 34 45 52 41 53 49 46 50 43 69 48 22 53 35 51 57 60 67 75 72 65 52 53 58 57 61 86 98 155 151 151 169 189 183
64 56 52 49 51 51 45 43 42 47 51 52 60 61 62 52 51 58 53 84 56 72 113 107 88 73 63 67 65 32 39 51 76 64 190 164 135 120
62 49 54 48 41 41 40 44 40 39 39 37 35 38 51 62 69 42 82 81 77 82 193 173 207 216 213 157 87 151 15 306 255 279 277 152 176 153